Location: Namasale
(1.5000°N, 32.6167°E)
Time: 06:47:37
(UTC+00:00)

X-37B - Visible Passes

Search period start: 02 December 2021 00:00
Search period end: 12 December 2021 00:00
Orbit: 330 x 341 km, 45.0° (Epoch: 20 November)

Date Brightness Start Highest point End Pass type
(mag) Time Alt. Az. Time Alt. Az. Time Alt. Az.
02 Dec 0.7 02:33:32 34° NNW 02:34:27 56° NE 02:37:13 10° SE visible
03 Dec 2.0 02:53:37 16° W 02:54:49 20° SW 02:57:01 10° S visible
04 Dec 3.9 01:42:24 12° SE 01:42:24 12° SE 01:42:39 10° SE visible
05 Dec 3.4 02:02:22 11° S 02:02:22 11° S 02:02:28 10° S visible
